Simultaneous Nadir Overpasses (SNOs) Predictions

Prediction of SNOs between GOES-15 and METOP-A Satellite Orbit:

Table of predicted SNOs for the next 14.0 days since TLE Epoch: 12/14/2018
Index Date Time (GOES-15) GOES-15 Lat,Lon METOP-A Lat,Lon Distance(km) Time Diff (sec)
1 12/15/2018 17:34:28 -0.17,-128.62 -1.01,-124.86 428.16 80
2 12/17/2018 05:53:25 0.16,-128.62 -0.04,-129.45 94.82 80
3 12/18/2018 05:30:03 0.17,-128.62 1.10,-124.46 473.78 80
4 12/19/2018 17:48:50 -0.15,-128.61 -0.07,-129.02 46.81 80
5 12/22/2018 05:47:05 0.15,-128.61 0.17,-128.62 3.40 80
6 12/24/2018 17:47:50 -0.13,-128.56 -0.22,-128.18 43.49 80
7 12/26/2018 06:06:46 0.12,-128.57 -0.81,-132.77 478.89 80
8 12/27/2018 05:43:24 0.12,-128.55 0.27,-127.77 88.41 80
9 12/28/2018 18:02:12 -0.11,-128.50 0.71,-132.34 436.96 80




NCC Satellite Simultaneous Nadir Overpasses (SNOs) Prediction Service
